Location: Unspecified
(0.0000°N, 0.0000°E)
Time: 22:28:19
(UTC+00:00)

Vanguard 2 Rocket - Pass Details

Date: 21 December 2018
Orbit: 554 x 3327 km, 32.9° (Epoch: 19 January)

Event Time Altitude Azimuth Distance (km) Brightness Sun altitude
Rises 02:56:45 0° 270° (W) 5,149 - -40.7°
Reaches altitude 10° 03:03:10 10° 294° (WNW) 3,426 - -39.3°
Maximum altitude 03:06:29 13° 318° (NW) 2,844 - -38.6°
Drops below altitude 10° 03:09:15 10° 343° (NNW) 2,732 - -38.0°
Sets 03:13:08 0° 14° (NNE) 3,262 - -37.2°
